Change the Weather History Date:

Monday, March 10, 2014

  Actual Average Record
Temperature  
Mean Temperature 34 °F -  
Max Temperature 39 °F - - ()
Min Temperature 32 °F - - ()
Degree Days  
Heating Degree Days 30    
Moisture  
Dew Point 31 °F    
Average Humidity 86    
Maximum Humidity 100    
Minimum Humidity 64    
Precipitation  
Precipitation 2.42 in - - ()
Sea Level Pressure  
Sea Level Pressure 29.27 in    
Wind  
Wind Speed 20 mph (ESE)    
Max Wind Speed 41 mph    
Max Gust Speed 78 mph    
Visibility 2 miles    
Events Fog , Rain , Snow    
T = Trace of Precipitation, MM = Missing Value Source: NWS Daily Summary

Daily Weather History Graph

Daily Weather History Graph

Search for Another Location

Airport or City:

Trip Planner

Search our weather history database for the weather conditions in past years. The results will help you decide how hot, cold, wet, or windy it might be!

Date:

Astronomy

Mar. 10, 2014 Rise Set
Actual Time 8:27 AM AKDT 7:45 PM AKDT
Civil Twilight 7:44 AM AKDT 8:27 PM AKDT
Nautical Twilight 6:55 AM AKDT 9:17 PM AKDT
Astronomical Twilight 6:02 AM AKDT 10:10 PM AKDT
Moon 1:31 PM AKDT (3/10) 5:53 AM AKDT (3/10)
Length of Visible Light 12h 43m
Length of Day
11h 18m
Waxing Gibbous, 71% of the Moon is Illuminated
Mar 10
Waxing Gibbous
Mar 16
Full
Mar 23
Last Quarter
Mar 30
New
Apr 7
First Quarter

Hourly Weather History & Observations

Time (AKDT) Temp. Windchill Dew Point Humidity Pressure Visibility Wind Dir Wind Speed Gust Speed Precip Events Conditions
12:05 AM 32.0 °F 22.1 °F 30.0 °F 92% 29.45 in 0.5 mi ESE 13.8 mph 26.5 mph 0.01 in Fog , Snow Snow
12:19 AM 33.1 °F 23.0 °F 28.9 °F 85% 29.45 in 2.0 mi East 15.0 mph 31.1 mph 0.01 in Snow Light Snow
12:22 AM 34.0 °F 23.4 °F 28.9 °F 82% 29.45 in 3.0 mi East 17.3 mph 31.1 mph 0.01 in Snow Light Snow
12:34 AM 34.0 °F 25.0 °F 27.0 °F 75% 29.45 in 7.0 mi ESE 12.7 mph 24.2 mph 0.01 in Snow Light Snow
12:53 AM 35.1 °F 25.9 °F 24.1 °F 64% 29.47 in 10.0 mi ESE 13.8 mph 23.0 mph 0.01 in   Mostly Cloudy
1:53 AM 34.0 °F 24.6 °F 27.0 °F 75% 29.49 in 4.0 mi ESE 13.8 mph 27.6 mph 0.00 in Snow Light Snow
2:53 AM 34.0 °F 23.4 °F 28.0 °F 79% 29.50 in 3.0 mi East 17.3 mph 26.5 mph 0.00 in Snow Light Snow
3:07 AM 34.0 °F 22.7 °F 28.0 °F 79% 29.49 in 4.0 mi East 19.6 mph 29.9 mph 0.00 in Snow Light Snow
3:38 AM 35.1 °F 24.5 °F 27.0 °F 72% 29.48 in 2.5 mi East 18.4 mph 28.8 mph 0.00 in Snow Light Snow
3:53 AM 35.1 °F 24.8 °F 28.9 °F 78% 29.47 in 1.5 mi East 17.3 mph 33.4 mph 0.00 in Snow Light Snow
4:33 AM 36.0 °F 25.3 °F 28.9 °F 76% 29.49 in 3.0 mi ENE 19.6 mph 43.7 mph 0.00 in Snow Light Snow
4:48 AM 35.6 °F 24.2 °F 28.4 °F 75% 29.47 in 2.5 mi East 21.9 mph 38.0 mph 0.00 in Snow Light Snow
4:53 AM 36.0 °F 25.3 °F 28.0 °F 73% 29.47 in 2.5 mi ESE 19.6 mph 38.0 mph 0.00 in Snow Light Snow
5:04 AM 36.0 °F 26.3 °F 28.9 °F 76% 29.47 in 1.5 mi ESE 16.1 mph 39.1 mph 0.00 in Snow Light Snow
5:21 AM 35.1 °F 23.0 °F 30.0 °F 82% 29.47 in 1.2 mi ESE 24.2 mph 40.3 mph 0.01 in Snow Light Snow
5:53 AM 35.1 °F 23.5 °F 30.0 °F 82% 29.47 in 1.2 mi East 21.9 mph 38.0 mph 0.03 in Snow Light Snow
6:36 AM 35.1 °F 23.8 °F 30.9 °F 85% 29.44 in 2.0 mi ESE 20.7 mph 39.1 mph 0.03 in Snow Light Snow
6:53 AM 35.1 °F 24.5 °F 30.9 °F 85% 29.45 in 1.8 mi ESE 18.4 mph 48.3 mph 0.04 in Snow Light Snow
7:53 AM 35.1 °F 22.7 °F 30.9 °F 85% 29.41 in 1.0 mi ESE 25.3 mph 57.5 mph 0.06 in Snow Light Snow
8:53 AM 36.0 °F 23.0 °F 30.9 °F 82% 29.42 in 1.0 mi East 29.9 mph 55.2 mph 0.08 in Snow Light Snow
9:05 AM 36.0 °F 23.5 °F 30.9 °F 82% 29.40 in 0.8 mi East 27.6 mph 61.0 mph 0.01 in Snow Light Snow
9:41 AM 35.1 °F 23.0 °F 30.9 °F 85% 29.37 in 0.8 mi East 24.2 mph 42.6 mph 0.06 in Snow Light Snow
9:53 AM 36.0 °F 23.7 °F 30.9 °F 82% 29.37 in 0.8 mi ESE 26.5 mph 57.5 mph 0.08 in Snow Light Snow
10:00 AM 36.0 °F 22.6 °F 30.9 °F 82% 29.36 in 0.5 mi East 32.2 mph 50.6 mph 0.02 in Snow Snow
10:24 AM 36.0 °F 23.2 °F 34.0 °F 93% 29.36 in 0.5 mi East 28.8 mph 64.4 mph 0.08 in Fog , Snow Snow
10:53 AM 36.0 °F 22.8 °F 34.0 °F 93% 29.35 in 0.8 mi East 31.1 mph 57.5 mph 0.14 in Snow Light Snow
11:22 AM 36.0 °F 21.1 °F 35.1 °F 97% 29.33 in 0.5 mi ENE 41.4 mph 65.6 mph 0.08 in Fog , Snow Light Snow
11:39 AM 36.0 °F - 34.0 °F 93% 29.32 in 0.8 mi North - - 0.12 in Snow Light Snow
11:53 AM 36.0 °F 22.0 °F 33.1 °F 89% 29.34 in 0.5 mi East 35.7 mph 78.3 mph 0.16 in Fog , Snow Snow
12:00 PM 36.0 °F 23.7 °F 32.0 °F 86% 29.32 in 0.5 mi East 26.5 mph 76.0 mph 0.02 in Fog , Snow Snow
12:53 PM 35.1 °F 21.2 °F 32.0 °F 89% 29.31 in 0.5 mi East 33.4 mph 52.9 mph 0.16 in Fog , Snow Snow
1:27 PM 34.0 °F 21.3 °F 34.0 °F 100% 29.29 in 0.2 mi SE 25.3 mph 54.1 mph 0.08 in Fog , Snow Snow
1:53 PM 34.0 °F 21.8 °F 30.9 °F 89% 29.26 in 0.5 mi ESE 23.0 mph 65.6 mph 0.14 in Fog , Snow Snow
2:05 PM 35.1 °F 20.4 °F 30.9 °F 85% 29.27 in 0.2 mi ENE 38.0 mph 66.7 mph 0.03 in Fog , Snow Snow
2:27 PM 35.1 °F 22.5 °F 30.9 °F 85% 29.26 in 0.5 mi East 26.5 mph 47.2 mph 0.08 in Fog , Snow Snow
2:53 PM 35.1 °F 22.5 °F 34.0 °F 96% 29.26 in 0.5 mi ESE 26.5 mph 46.0 mph 0.14 in Fog , Snow Snow
3:15 PM 35.1 °F 21.0 °F 32.0 °F 89% 29.23 in 0.2 mi East 34.5 mph 57.5 mph 0.05 in Fog , Snow Snow
3:53 PM 34.0 °F 21.3 °F 32.0 °F 92% 29.22 in 0.2 mi ESE 25.3 mph 57.5 mph 0.13 in Fog , Snow Heavy Snow
4:00 PM 34.0 °F 23.0 °F 32.0 °F 92% 29.20 in 0.2 mi ESE 18.4 mph 56.4 mph 0.02 in Fog , Snow Heavy Snow
4:53 PM 34.0 °F 21.5 °F 32.0 °F 92% 29.16 in 0.2 mi East 24.2 mph 48.3 mph 0.25 in Fog , Snow Heavy Snow
5:53 PM 34.0 °F 19.9 °F 32.0 °F 92% 29.11 in 0.2 mi East 32.2 mph 58.7 mph 0.26 in Fog , Snow Heavy Snow
6:27 PM 34.0 °F 20.3 °F 32.0 °F 92% 29.09 in 0.5 mi East 29.9 mph 50.6 mph 0.12 in Fog , Snow Snow
6:33 PM 34.0 °F 21.0 °F 32.0 °F 92% 29.08 in 0.2 mi East 26.5 mph 50.6 mph 0.14 in Fog , Snow Heavy Snow
6:41 PM 34.0 °F 21.8 °F 32.0 °F 92% 29.06 in 0.2 mi ESE 23.0 mph 43.7 mph 0.17 in Fog , Snow Heavy Snow
6:53 PM 34.0 °F 22.4 °F 32.0 °F 92% 29.07 in 0.5 mi East 20.7 mph 40.3 mph 0.21 in Fog , Snow Snow
7:07 PM 34.0 °F 20.3 °F 32.0 °F 92% 29.05 in 0.2 mi ENE 29.9 mph 48.3 mph 0.04 in Fog , Snow Heavy Snow
7:32 PM 34.0 °F 23.0 °F 32.0 °F 92% 29.05 in 0.5 mi ESE 18.4 mph 38.0 mph 0.12 in Fog , Snow Snow
7:53 PM 35.1 °F 24.8 °F 32.0 °F 89% 29.04 in 0.8 mi ESE 17.3 mph 46.0 mph 0.19 in Snow Light Snow
8:07 PM 34.0 °F 24.6 °F 32.0 °F 92% 29.02 in 1.0 mi SE 13.8 mph 36.8 mph 0.04 in Snow Light Snow
8:53 PM 34.0 °F 25.0 °F 32.0 °F 92% 29.03 in 1.0 mi ESE 12.7 mph 38.0 mph 0.18 in Snow Light Snow
9:13 PM 34.0 °F 23.4 °F 32.0 °F 92% 29.03 in 0.8 mi East 17.3 mph 34.5 mph 0.07 in Snow Light Snow
9:21 PM 34.0 °F 24.6 °F 32.0 °F 92% 29.03 in 1.0 mi SE 13.8 mph 28.8 mph 0.09 in Snow Light Snow
9:45 PM 33.1 °F 24.4 °F 33.1 °F 100% 29.03 in 2.0 mi SSE 11.5 mph 21.9 mph 0.15 in Snow Light Snow
9:53 PM 34.0 °F 24.6 °F 33.1 °F 96% 29.05 in 3.0 mi SSE 13.8 mph 24.2 mph 0.16 in Snow Light Snow
10:11 PM 37.0 °F 26.7 °F 32.0 °F 82% 29.06 in 10.0 mi East 19.6 mph 34.5 mph 0.00 in   Overcast
10:23 PM 37.0 °F 26.4 °F 32.0 °F 82% 29.07 in 10.0 mi East 20.7 mph 39.1 mph 0.00 in   Overcast
10:53 PM 37.0 °F 28.5 °F 30.9 °F 79% 29.10 in 10.0 mi East 13.8 mph 24.2 mph 0.00 in Rain Light Rain
11:18 PM 37.0 °F 28.9 °F 30.9 °F 79% 29.10 in 9.0 mi East 12.7 mph 32.2 mph 0.00 in Rain Light Rain
11:50 PM 37.4 °F 27.2 °F 30.2 °F 75% 29.09 in 9.0 mi East 19.6 mph 28.8 mph 0.00 in Rain Light Rain
11:53 PM 37.9 °F 28.5 °F 30.9 °F 76% 29.10 in 10.0 mi East 17.3 mph 28.8 mph 0.00 in Rain Light Rain